Baltimore, MD

4:54 AM EDT on July 27, 2017 (GMT -0400)
Baltimore-Washington International

Weather History for KBWI - January, 2013

Change the Weather History Date:

Sunday, January 13, 2013

  Actual Average Record
Temperature  
Mean Temperature 44 °F 33 °F  
Max Temperature 47 °F 41 °F 76 °F (1932)
Min Temperature 40 °F 24 °F 0 °F (1981)
Degree Days  
Heating Degree Days 21 32  
Month to date heating degree days 342 416  
Since 1 July heating degree days 1939 2197  
Cooling Degree Days 0 0  
Month to date cooling degree days 0 0  
Year to date cooling degree days 0 0  
Moisture  
Dew Point 45 °F    
Average Humidity 97    
Maximum Humidity 100    
Minimum Humidity 93    
Precipitation  
Precipitation T in 0.10 in 1.18 in (1978)
Month to date precipitation 0.07 1.26  
Year to date precipitation 0.07 1.26  
Snow  
Snow 0.00 in 0.30 in 7.80 in (1964)
Month to date snowfall 0.0 2.3  
Since 1 July snowfall 1.4 5.7  
Snow Depth 0.00 in    
Sea Level Pressure  
Sea Level Pressure 30.07 in    
Wind  
Wind Speed 3 mph (ESE)    
Max Wind Speed 8 mph    
Max Gust Speed 10 mph    
Visibility 1 miles    
Events Fog    
T = Trace of Precipitation, MM = Missing Value Source: NWS Daily Summary

Daily Weather History Graph

Daily Weather History Graph

Search for Another Location

Airport or City:

Trip Planner

Search our weather history database for the weather conditions in past years. The results will help you decide how hot, cold, wet, or windy it might be!

Date:

Astronomy

Jan. 13, 2013 Rise Set
Actual Time 7:25 AM EST 5:06 PM EST
Civil Twilight 6:55 AM EST 5:35 PM EST
Nautical Twilight 6:22 AM EST 6:08 PM EST
Astronomical Twilight 5:50 AM EST 6:40 PM EST
Moon 8:23 AM EST (1/13) 7:40 PM EST (1/13)
Length of Visible Light 10h 40m
Length of Day
9h 41m
Waxing Crescent, 5% of the Moon is Illuminated
Jan 13
Waxing Crescent
Jan 18
First Quarter
Jan 26
Full
Feb 3
Last Quarter
Feb 10
New

Hourly Weather History & Observations

Time (EST) Temp. Windchill Dew Point Humidity Pressure Visibility Wind Dir Wind Speed Gust Speed Precip Events Conditions
12:54 AM 41.0 °F - 39.9 °F 96% 30.13 in 6.0 mi Calm Calm - N/A   Overcast
1:54 AM 41.0 °F - 39.9 °F 96% 30.12 in 4.0 mi Calm Calm - N/A   Mostly Cloudy
2:30 AM 39.2 °F - 39.2 °F 100% 30.12 in 0.2 mi Calm Calm - N/A Fog Fog
2:52 AM 41.0 °F - 41.0 °F 100% 30.11 in 0.1 mi Calm Calm - N/A Fog Fog
2:54 AM 41.0 °F - 41.0 °F 100% 30.12 in 0.1 mi Calm Calm - N/A Fog Fog
3:01 AM 42.8 °F - 42.8 °F 100% 30.11 in 0.1 mi Calm Calm - N/A Fog Fog
3:54 AM 42.1 °F - 42.1 °F 100% 30.09 in 0.1 mi Calm Calm - N/A Fog Fog
4:54 AM 42.1 °F 39.2 °F 42.1 °F 100% 30.08 in 0.2 mi ESE 4.6 mph - N/A Fog Fog
5:54 AM 42.1 °F 40.2 °F 42.1 °F 100% 30.09 in 0.1 mi ESE 3.5 mph - N/A Fog Fog
6:02 AM 42.8 °F - 42.8 °F 100% 30.10 in 0.1 mi Calm Calm - N/A Fog Fog
6:30 AM 42.8 °F 41.1 °F 42.8 °F 100% 30.09 in 0.2 mi ESE 3.5 mph - N/A Fog Fog
6:54 AM 42.1 °F 39.2 °F 42.1 °F 100% 30.09 in 0.2 mi ESE 4.6 mph - N/A Fog Fog
7:54 AM 42.1 °F 38.4 °F 42.1 °F 100% 30.10 in 0.2 mi East 5.8 mph - N/A Fog Fog
8:54 AM 43.0 °F 41.3 °F 43.0 °F 100% 30.11 in 0.8 mi ESE 3.5 mph - N/A   Overcast
9:54 AM 44.1 °F 42.5 °F 44.1 °F 100% 30.11 in 1.0 mi ESE 3.5 mph - N/A   Overcast
10:31 AM 44.6 °F - 44.6 °F 100% 30.14 in 0.8 mi Calm Calm - N/A   Overcast
10:54 AM 45.0 °F 43.5 °F 45.0 °F 100% 30.13 in 0.2 mi East 3.5 mph - N/A Fog Fog
11:01 AM 44.6 °F 41.4 °F 44.6 °F 100% 30.11 in 0.2 mi ESE 5.8 mph - N/A Fog Fog
11:08 AM 46.4 °F 44.3 °F 44.6 °F 93% 30.11 in 0.2 mi SE 4.6 mph - N/A Fog Fog
11:33 AM 46.4 °F 43.5 °F 46.4 °F 100% 30.09 in 0.2 mi ESE 5.8 mph - N/A Fog Fog
11:54 AM 46.0 °F 43.9 °F 46.0 °F 100% 30.08 in 0.2 mi ESE 4.6 mph - N/A Fog Fog
12:48 PM 46.4 °F 43.5 °F 46.4 °F 100% 30.06 in 0.5 mi ESE 5.8 mph - N/A Fog Fog
12:54 PM 46.0 °F 42.5 °F 46.0 °F 100% 30.06 in 0.5 mi East 6.9 mph - N/A Fog Fog
1:54 PM 46.0 °F 43.9 °F 46.0 °F 100% 30.05 in 0.8 mi East 4.6 mph - N/A   Overcast
2:54 PM 46.9 °F - 46.0 °F 97% 30.05 in 0.5 mi ESE 6.9 mph - N/A Fog Fog
3:54 PM 46.9 °F - 46.9 °F 100% 30.04 in 0.5 mi ESE 4.6 mph - 0.00 in Fog Light Drizzle
4:54 PM 46.9 °F - 46.9 °F 100% 30.04 in 0.5 mi Calm Calm - 0.00 in Fog Light Drizzle
5:54 PM 48.0 °F - 48.0 °F 100% 30.05 in 0.8 mi Calm Calm - 0.00 in   Light Drizzle
6:54 PM 48.2 °F - 48.2 °F 100% 30.03 in 0.5 mi ESE 3.5 mph - N/A Fog Light Drizzle
7:54 PM 48.0 °F - 48.0 °F 100% 30.01 in 0.5 mi Calm Calm - 0.00 in Fog Light Drizzle
8:54 PM 48.0 °F - 48.0 °F 100% 30.00 in 0.2 mi Calm Calm - 0.00 in Fog Fog
8:56 PM 48.2 °F - 48.2 °F 100% 30.00 in 0.2 mi Calm Calm - N/A Fog Fog
9:49 PM 48.2 °F - 48.2 °F 100% 29.99 in 0.1 mi Calm Calm - 0.00 in Fog Light Drizzle
9:54 PM 48.0 °F - 48.0 °F 100% 29.99 in 0.1 mi Calm Calm - 0.00 in Fog Light Drizzle
10:54 PM 48.0 °F - 48.0 °F 100% 29.98 in 0.1 mi Calm Calm - 0.00 in Fog Fog
11:54 PM 48.0 °F - 48.0 °F 100% 29.98 in 0.1 mi Calm Calm - N/A Fog Fog